This demonstration page uses our WeatherBlox Daily Observations layout. Learn more.

38.89511, -77.03637

Hourly Observations for July 21, 2017

Temp ( °F °C ) Dew Point ( °F °C ) Humidity (%) Winds ( mph kmh ) Pressure ( in mb ) Visibility ( mi km ) Precip ( " mm )
12:52 am 00:52 Mostly Cloudy 85 29.4 78 25.6 80 80 Calm 29.91 1013 10 16.09344 0 0
1:52 am 01:52 Clear 86 30 70 21.1 59 59 NW 8 13 29.91 1013 10 16.09344 0 0
2:52 am 02:52 Clear 85 29.4 69 20.6 59 59 NW 7 11 29.91 1013 10 16.09344 0 0
3:52 am 03:52 Mostly Cloudy 86 30 69 20.6 57 57 NW 6 9 29.88 1012 10 16.09344 0 0
4:52 am 04:52 Partly Cloudy 84 28.9 72 22.2 67 67 Calm 29.88 1012 10 16.09344 0 0
5:52 am 05:52 Mostly Cloudy 82 27.8 72 22.2 72 72 SSW 3 6 29.91 1013 10 16.09344 0 0
6:52 am 06:52 Mostly Cloudy 84 28.9 70 21.1 63 63 N 6 9 29.94 1014 10 16.09344 0 0
7:52 am 07:52 Mostly Cloudy 86 30 71 21.7 61 61 N 8 13 29.94 1014 10 16.09344 0 0
8:52 am 08:52 Mostly Cloudy 88 31.1 72 22.2 59 59 NNW 12 19 29.97 1015 10 16.09344 0 0
9:52 am 09:52 Partly Cloudy 89 31.7 72 22.2 57 57 NW 9 15 29.97 1015 10 16.09344 0 0
10:52 am 10:52 Partly Cloudy 92 33.3 71 21.7 51 51 NNE 3 6 29.94 1014 10 16.09344 0 0
11:52 am 11:52 Partly Cloudy 91 32.8 70 21.1 50 50 ESE 5 7 29.94 1014 10 16.09344 0 0
12:52 pm 12:52 Mostly Cloudy 92 33.3 71 21.7 51 51 SE 6 9 29.94 1014 10 16.09344 0 0
1:52 pm 13:52 Mostly Cloudy 93 33.9 73 22.8 52 52 S 9 15 29.91 1013 10 16.09344 0 0
2:52 pm 14:52 Mostly Cloudy 93 33.9 73 22.8 52 52 Calm 29.91 1013 10 16.09344 0 0
3:52 pm 15:52 Mostly Cloudy 95 35 71 21.7 46 46 NNW 8 13 29.88 1012 10 16.09344 0 0
4:52 pm 16:52 Mostly Cloudy 96 35.6 71 21.7 44 44 WSW 7 11 29.88 1012 10 16.09344 0 0
5:52 pm 17:52 Mostly Cloudy 94 34.4 70 21.1 46 46 N 6 9 29.85 1011 10 16.09344 0 0
6:52 pm 18:52 Mostly Cloudy 93 33.9 71 21.7 49 49 S 5 7 29.85 1011 10 16.09344 0 0
7:52 pm 19:52 Mostly Cloudy 91 32.8 74 23.3 57 57 S 7 11 29.85 1011 10 16.09344 0 0
8:52 pm 20:52 Mostly Cloudy 90 32.2 76 24.4 63 63 S 6 9 29.85 1011 10 16.09344 0 0
9:52 pm 21:52 Mostly Cloudy 90 32.2 76 24.4 63 63 S 8 13 29.88 1012 10 16.09344 0 0
10:52 pm 22:52 Mostly Cloudy 88 31.1 77 25 70 70 SSW 5 7 29.88 1012 10 16.09344 0 0
11:52 pm 23:52 Mostly Cloudy 87 30.6 76 24.4 70 70 WNW 9 15 29.88 1012 10 16.09344 0 0

Powered by AerisWeather